OBJECT AH

基本信息
目录编号:
52425
目录名称:
OBJECT AH
国际标识:
2022-047AH
轨道中心:
EARTH
物体状态:
已陨落(2024-08-07)
发射日期:
2022-05-02 UTC
国别:
(TBD)
轨道信息
数据来源: 国际轨道数据
星历时间: 2024-08-08T01:18:36+0800
半长轴: 6552.893km
偏心率: 0.0014929
轨道倾角: 97.363°
近地点辐角: 267.187°
升交点赤经: 315.249°
平近点角: 92.772°
近地点: 164.975km
远地点: 184.541km
周期: 87.985分钟
每日圈数: 16.366401
详细信息
发射场:
RLLC
轨道高度:
LEO
数据来源:
AOE Integration Group
参考系:
TEME
时间系统:
UTC
历元类型:
SGP4
2D轨道图
3D轨道图
轨道高度分析图
轨道倾角分析图
轨道综合分析图
查看轨道综合分析图